Time,TemperatureF,DewpointF,PressureIn,WindDirection,WindDirectionDegrees,WindSpeedMPH,WindSpeedGustMPH,Humidity,HourlyPrecipIn,Conditions,Clouds,dailyrainin,SoftwareType,DateUTC
2013-06-14 00:13:00,73.6,72.0,29.94,ENE,69,0.0,0.0,96,0.00,,,0.00,weatherlink.com 1.10,2013-06-14 05:13:00,
2013-06-14 00:28:00,73.4,73.0,29.94,ENE,70,0.0,0.0,97,0.00,,,0.00,weatherlink.com 1.10,2013-06-14 05:28:00,
2013-06-14 00:43:00,73.4,73.0,29.94,WNW,294,0.0,0.0,97,0.00,,,0.00,weatherlink.com 1.10,2013-06-14 05:43:00,
2013-06-14 00:58:00,73.5,73.0,29.94,SW,230,0.0,0.0,97,0.00,,,0.00,weatherlink.com 1.10,2013-06-14 05:58:00,
2013-06-14 01:13:00,73.6,73.0,29.93,SW,231,0.0,0.0,97,0.00,,,0.00,weatherlink.com 1.10,2013-06-14 06:13:00,
2013-06-14 01:28:00,73.6,73.0,29.93,East,91,0.0,0.0,97,0.00,,,0.00,weatherlink.com 1.10,2013-06-14 06:28:00,
2013-06-14 01:43:00,73.7,73.0,29.93,East,86,0.0,0.0,97,0.00,,,0.00,weatherlink.com 1.10,2013-06-14 06:43:00,
2013-06-14 01:58:00,73.8,73.0,29.92,East,96,0.0,0.0,97,0.00,,,0.00,weatherlink.com 1.10,2013-06-14 06:58:00,
2013-06-14 02:13:00,73.9,73.0,29.92,NE,54,0.0,0.0,97,0.00,,,0.00,weatherlink.com 1.10,2013-06-14 07:13:00,
2013-06-14 02:28:00,73.9,73.0,29.91,East,81,1.0,3.0,97,0.00,,,0.00,weatherlink.com 1.10,2013-06-14 07:28:00,
2013-06-14 02:43:00,74.0,73.0,29.91,East,88,1.0,3.0,97,0.00,,,0.00,weatherlink.com 1.10,2013-06-14 07:43:00,
2013-06-14 02:58:00,74.1,73.0,29.91,ENE,73,0.0,2.0,97,0.00,,,0.00,weatherlink.com 1.10,2013-06-14 07:58:00,
2013-06-14 03:13:00,74.2,73.0,29.91,East,86,0.0,1.0,97,0.00,,,0.00,weatherlink.com 1.10,2013-06-14 08:13:00,
2013-06-14 03:28:00,74.3,73.0,29.91,East,90,1.0,1.0,97,0.00,,,0.00,weatherlink.com 1.10,2013-06-14 08:28:00,
2013-06-14 03:43:00,74.3,73.0,29.90,East,92,1.0,1.0,97,0.00,,,0.00,weatherlink.com 1.10,2013-06-14 08:43:00,
2013-06-14 03:58:00,74.3,73.0,29.90,East,91,0.0,1.0,97,0.00,,,0.00,weatherlink.com 1.10,2013-06-14 08:58:00,
2013-06-14 04:13:00,74.2,73.0,29.90,East,92,0.0,0.0,97,0.00,,,0.00,weatherlink.com 1.10,2013-06-14 09:13:00,
2013-06-14 04:28:00,74.2,73.0,29.91,East,92,0.0,0.0,97,0.00,,,0.00,weatherlink.com 1.10,2013-06-14 09:28:00,
2013-06-14 04:43:00,74.2,73.0,29.91,East,91,0.0,0.0,97,0.00,,,0.00,weatherlink.com 1.10,2013-06-14 09:43:00,
2013-06-14 04:58:00,74.3,73.0,29.91,NE,52,2.0,2.0,97,0.00,,,0.00,weatherlink.com 1.10,2013-06-14 09:58:00,
2013-06-14 05:13:00,74.4,74.0,29.91,NE,48,1.0,2.0,97,0.00,,,0.00,weatherlink.com 1.10,2013-06-14 10:13:00,
2013-06-14 05:28:00,74.6,74.0,29.91,NNE,29,1.0,3.0,97,0.00,,,0.00,weatherlink.com 1.10,2013-06-14 10:28:00,
2013-06-14 05:43:00,74.8,74.0,29.92,ENE,65,2.0,2.0,97,0.00,,,0.00,weatherlink.com 1.10,2013-06-14 10:43:00,
2013-06-14 05:58:00,74.8,74.0,29.93,ENE,60,1.0,3.0,97,0.00,,,0.00,weatherlink.com 1.10,2013-06-14 10:58:00,
2013-06-14 06:14:00,74.9,74.0,29.93,ENE,72,2.0,4.0,97,0.00,,,0.00,weatherlink.com 1.10,2013-06-14 11:14:00,
2013-06-14 06:29:00,75.0,74.0,29.94,ENE,69,1.0,3.0,97,0.00,,,0.00,weatherlink.com 1.10,2013-06-14 11:29:00,
2013-06-14 06:44:00,75.1,74.0,29.95,ENE,66,2.0,2.0,97,0.00,,,0.00,weatherlink.com 1.10,2013-06-14 11:44:00,
2013-06-14 06:59:00,75.1,74.0,29.95,ENE,57,1.0,2.0,97,0.00,,,0.00,weatherlink.com 1.10,2013-06-14 11:59:00,
2013-06-14 07:14:00,75.3,75.0,29.95,NE,49,2.0,3.0,98,0.00,,,0.00,weatherlink.com 1.10,2013-06-14 12:14:00,
2013-06-14 07:29:00,75.5,75.0,29.95,NE,48,2.0,3.0,98,0.00,,,0.00,weatherlink.com 1.10,2013-06-14 12:29:00,
2013-06-14 07:44:00,75.7,75.0,29.95,NNE,30,2.0,3.0,98,0.00,,,0.00,weatherlink.com 1.10,2013-06-14 12:44:00,
2013-06-14 07:59:00,75.8,75.0,29.95,ENE,60,2.0,3.0,98,0.00,,,0.00,weatherlink.com 1.10,2013-06-14 12:59:00,
2013-06-14 08:14:00,76.2,76.0,29.95,ENE,77,2.0,3.0,98,0.00,,,0.00,weatherlink.com 1.10,2013-06-14 13:14:00,
2013-06-14 08:29:00,76.8,76.0,29.96,SE,142,1.0,2.0,98,0.00,,,0.00,weatherlink.com 1.10,2013-06-14 13:29:00,
2013-06-14 08:44:00,77.2,77.0,29.97,SE,142,1.0,4.0,98,0.00,,,0.00,weatherlink.com 1.10,2013-06-14 13:44:00,
2013-06-14 08:59:00,77.4,77.0,29.97,East,98,2.0,4.0,98,0.00,,,0.00,weatherlink.com 1.10,2013-06-14 13:59:00,
2013-06-14 09:14:00,77.6,77.0,29.97,SE,143,3.0,5.0,97,0.00,,,0.00,weatherlink.com 1.10,2013-06-14 14:14:00,
2013-06-14 09:29:00,78.1,77.0,29.97,East,98,1.0,4.0,97,0.00,,,0.00,weatherlink.com 1.10,2013-06-14 14:29:00,
2013-06-14 09:44:00,78.3,77.0,29.97,SE,131,1.0,4.0,97,0.00,,,0.00,weatherlink.com 1.10,2013-06-14 14:44:00,
2013-06-14 09:59:00,78.6,77.0,29.96,SE,139,3.0,4.0,96,0.00,,,0.00,weatherlink.com 1.10,2013-06-14 14:59:00,
2013-06-14 10:14:00,79.0,78.0,29.96,SE,136,3.0,4.0,95,0.00,,,0.00,weatherlink.com 1.10,2013-06-14 15:14:00,
2013-06-14 10:29:00,79.3,77.0,29.96,SE,136,5.0,5.0,93,0.00,,,0.00,weatherlink.com 1.10,2013-06-14 15:29:00,
2013-06-14 10:44:00,79.4,77.0,29.95,SSE,155,3.0,6.0,92,0.00,,,0.00,weatherlink.com 1.10,2013-06-14 15:44:00,
2013-06-14 10:59:00,79.7,77.0,29.94,East,97,3.0,7.0,92,0.00,,,0.00,weatherlink.com 1.10,2013-06-14 15:59:00,
2013-06-14 11:14:00,79.6,78.0,29.94,East,94,3.0,6.0,93,0.00,,,0.00,weatherlink.com 1.10,2013-06-14 16:14:00,
2013-06-14 11:29:00,79.6,77.0,29.95,SE,134,2.0,6.0,92,0.00,,,0.00,weatherlink.com 1.10,2013-06-14 16:29:00,
2013-06-14 11:44:00,80.1,77.0,29.95,SSE,156,4.0,7.0,90,0.00,,,0.00,weatherlink.com 1.10,2013-06-14 16:44:00,
2013-06-14 11:59:00,80.5,77.0,29.94,SE,143,4.0,10.0,89,0.00,,,0.00,weatherlink.com 1.10,2013-06-14 16:59:00,
2013-06-14 12:14:00,80.9,77.0,29.94,SSE,155,6.0,8.0,87,0.00,,,0.00,weatherlink.com 1.10,2013-06-14 17:14:00,
2013-06-14 12:29:00,81.4,76.0,29.94,SE,143,1.0,8.0,84,0.00,,,0.00,weatherlink.com 1.10,2013-06-14 17:29:00,
2013-06-14 12:44:00,81.6,76.0,29.94,SE,139,3.0,5.0,84,0.00,,,0.00,weatherlink.com 1.10,2013-06-14 17:44:00,
2013-06-14 12:59:00,81.8,76.0,29.93,SE,129,4.0,6.0,83,0.00,,,0.00,weatherlink.com 1.10,2013-06-14 17:59:00,
2013-06-14 13:14:00,82.5,77.0,29.92,ESE,109,4.0,6.0,83,0.00,,,0.00,weatherlink.com 1.10,2013-06-14 18:14:00,
2013-06-14 13:29:00,82.5,77.0,29.93,East,86,3.0,7.0,83,0.00,,,0.00,weatherlink.com 1.10,2013-06-14 18:29:00,
2013-06-14 13:44:00,82.7,77.0,29.92,ESE,110,4.0,7.0,82,0.00,,,0.00,weatherlink.com 1.10,2013-06-14 18:44:00,
2013-06-14 13:59:00,83.2,76.0,29.91,ESE,114,2.0,9.0,79,0.00,,,0.00,weatherlink.com 1.10,2013-06-14 18:59:00,
2013-06-14 14:14:00,83.6,77.0,29.91,East,101,7.0,8.0,79,0.00,,,0.00,weatherlink.com 1.10,2013-06-14 19:14:00,
2013-06-14 14:30:00,84.5,77.0,29.90,ESE,103,4.0,8.0,77,0.00,,,0.00,weatherlink.com 1.10,2013-06-14 19:30:00,
2013-06-14 14:45:00,85.1,76.0,29.89,ESE,105,5.0,9.0,73,0.00,,,0.00,weatherlink.com 1.10,2013-06-14 19:45:00,
2013-06-14 15:00:00,85.7,76.0,29.90,SE,133,2.0,8.0,73,0.00,,,0.00,weatherlink.com 1.10,2013-06-14 20:00:00,
2013-06-14 15:15:00,86.3,76.0,29.90,ESE,113,2.0,7.0,71,0.00,,,0.00,weatherlink.com 1.10,2013-06-14 20:15:00,
2013-06-14 15:30:00,86.9,75.0,29.89,SE,131,2.0,7.0,68,0.00,,,0.00,weatherlink.com 1.10,2013-06-14 20:30:00,
2013-06-14 15:45:00,87.3,76.0,29.89,East,92,3.0,5.0,69,0.00,,,0.00,weatherlink.com 1.10,2013-06-14 20:45:00,
2013-06-14 16:00:00,86.6,76.0,29.88,East,82,6.0,6.0,71,0.00,,,0.00,weatherlink.com 1.10,2013-06-14 21:00:00,
2013-06-14 16:15:00,86.1,76.0,29.88,ENE,75,4.0,5.0,72,0.00,,,0.00,weatherlink.com 1.10,2013-06-14 21:15:00,
2013-06-14 16:30:00,85.9,76.0,29.88,ENE,60,6.0,6.0,72,0.00,,,0.00,weatherlink.com 1.10,2013-06-14 21:30:00,
2013-06-14 16:45:00,85.9,76.0,29.88,East,84,4.0,4.0,73,0.00,,,0.00,weatherlink.com 1.10,2013-06-14 21:45:00,
2013-06-14 17:00:00,85.7,77.0,29.87,ENE,63,5.0,5.0,74,0.00,,,0.00,weatherlink.com 1.10,2013-06-14 22:00:00,
2013-06-14 17:15:00,85.7,77.0,29.86,NE,49,4.0,4.0,76,0.00,,,0.00,weatherlink.com 1.10,2013-06-14 22:15:00,
2013-06-14 17:30:00,85.6,77.0,29.86,ENE,57,2.0,4.0,75,0.00,,,0.00,weatherlink.com 1.10,2013-06-14 22:30:00,
2013-06-14 17:45:00,85.4,78.0,29.86,NE,44,1.0,2.0,78,0.00,,,0.00,weatherlink.com 1.10,2013-06-14 22:45:00,
2013-06-14 18:00:00,84.7,78.0,29.86,NE,41,1.0,3.0,79,0.00,,,0.00,weatherlink.com 1.10,2013-06-14 23:00:00,
2013-06-14 18:15:00,84.2,78.0,29.86,NE,41,0.0,0.0,81,0.00,,,0.00,weatherlink.com 1.10,2013-06-14 23:15:00,
2013-06-14 18:30:00,83.6,78.0,29.87,NE,41,0.0,0.0,84,0.00,,,0.00,weatherlink.com 1.10,2013-06-14 23:30:00,
2013-06-14 18:45:00,83.1,79.0,29.87,NE,41,0.0,0.0,86,0.00,,,0.00,weatherlink.com 1.10,2013-06-14 23:45:00,
2013-06-14 19:00:00,82.3,77.0,29.86,WSW,240,3.0,6.0,84,0.00,,,0.00,weatherlink.com 1.10,2013-06-15 00:00:00,
2013-06-14 19:15:00,81.0,77.0,29.87,WSW,240,12.0,12.0,86,0.00,,,0.00,weatherlink.com 1.10,2013-06-15 00:15:00,
2013-06-14 19:30:00,78.8,74.0,29.87,West,270,2.0,6.0,86,0.00,,,0.00,weatherlink.com 1.10,2013-06-15 00:30:00,
2013-06-14 19:45:00,78.2,74.0,29.88,WSW,242,2.0,4.0,87,0.00,,,0.00,weatherlink.com 1.10,2013-06-15 00:45:00,
2013-06-14 20:00:00,77.9,74.0,29.88,SW,225,0.0,2.0,87,0.00,,,0.00,weatherlink.com 1.10,2013-06-15 01:00:00,
2013-06-14 20:15:00,77.4,74.0,29.88,West,269,0.0,1.0,89,0.00,,,0.00,weatherlink.com 1.10,2013-06-15 01:15:00,
2013-06-14 20:30:00,76.8,74.0,29.89,WSW,255,2.0,2.0,91,0.00,,,0.00,weatherlink.com 1.10,2013-06-15 01:30:00,
2013-06-14 20:45:00,76.7,74.0,29.88,West,274,0.0,2.0,92,0.00,,,0.00,weatherlink.com 1.10,2013-06-15 01:45:00,
2013-06-14 21:00:00,76.3,74.0,29.89,WSW,239,1.0,4.0,93,0.00,,,0.00,weatherlink.com 1.10,2013-06-15 02:00:00,
2013-06-14 21:15:00,76.1,74.0,29.89,West,266,1.0,3.0,93,0.01,,,0.01,weatherlink.com 1.10,2013-06-15 02:15:00,
2013-06-14 21:31:00,75.7,74.0,29.88,West,272,0.0,2.0,94,0.01,,,0.01,weatherlink.com 1.10,2013-06-15 02:31:00,
2013-06-14 21:45:00,75.7,74.0,29.89,West,273,0.0,0.0,94,0.02,,,0.02,weatherlink.com 1.10,2013-06-15 02:45:00,
2013-06-14 22:00:00,75.7,74.0,29.89,West,273,0.0,0.0,94,0.02,,,0.02,weatherlink.com 1.10,2013-06-15 03:00:00,
2013-06-14 22:15:00,75.6,74.0,29.90,West,273,0.0,0.0,95,0.01,,,0.02,weatherlink.com 1.10,2013-06-15 03:15:00,
2013-06-14 22:30:00,75.5,74.0,29.91,WSW,242,0.0,2.0,95,0.01,,,0.02,weatherlink.com 1.10,2013-06-15 03:30:00,
2013-06-14 22:45:00,75.5,74.0,29.90,ENE,68,0.0,0.0,95,0.00,,,0.02,weatherlink.com 1.10,2013-06-15 03:45:00,
2013-06-14 23:00:00,75.4,74.0,29.90,ENE,68,0.0,0.0,95,0.00,,,0.02,weatherlink.com 1.10,2013-06-15 04:00:00,
2013-06-14 23:15:00,75.4,74.0,29.91,ENE,68,2.0,2.0,96,0.00,,,0.02,weatherlink.com 1.10,2013-06-15 04:15:00,
2013-06-14 23:30:00,75.4,74.0,29.91,East,91,2.0,3.0,96,0.00,,,0.02,weatherlink.com 1.10,2013-06-15 04:30:00,
2013-06-14 23:45:00,75.5,74.0,29.91,ESE,111,1.0,2.0,95,0.00,,,0.02,weatherlink.com 1.10,2013-06-15 04:45:00,